{"data":{"norad_id":57171,"epoch":"2026-09-21T21:53:34.322784Z","epoch_age_seconds":80900,"freshness":"FRESH","line1":"1 57171U 23091F   26264.91220281  .00005469  00000+0  21852-3 0  9995","line2":"2 57171  97.5016 326.7193 0011903 128.1531 232.0782 15.25485748178905","mean_motion":15.25485748,"eccentricity":0.0011903,"inclination_deg":97.5016,"raan_deg":326.7193,"arg_perigee_deg":128.1531,"mean_anomaly_deg":232.0782,"bstar":0.00021852,"rev_number":17890,"period_min":94.396162133138,"perigee_km":481.15287036731,"apogee_km":497.50155567283,"semimajor_km":6867.4642130201,"source":"CELESTRAK","updated_at":"2026-09-22T09:00:26.073210Z"}}